Stündliche Wetter Holuzne

Heute, 21 Juni, Montag

Zeit Temperatur Niederschläge Wind Luftdruck Luftfeuchtigkeit
00:00 +19°C° 0 mm 2 m/S 737 mmHg 92%
01:00 +18°C° 0 mm 2 m/S 737 mmHg 94%
02:00 +18°C° 0 mm 2 m/S 737 mmHg 95%
03:00 +18°C° 0 mm 2 m/S 737 mmHg 95%
04:00 +18°C° 0 mm 2 m/S 736 mmHg 96%
05:00 +17°C° 0 mm 3 m/S 736 mmHg 96%
06:00 +19°C° 0 mm 3 m/S 736 mmHg 92%
07:00 +20°C° 0 mm 3 m/S 736 mmHg 88%
08:00 +22°C° 0 mm 4 m/S 737 mmHg 83%
09:00 +23°C° 0 mm 4 m/S 737 mmHg 77%
10:00 +25°C° 0 mm 4 m/S 737 mmHg 72%
11:00 +26°C° 0 mm 5 m/S 736 mmHg 66%
12:00 +27°C° 0 mm 4 m/S 736 mmHg 64%
13:00 +27°C° 0 mm 4 m/S 736 mmHg 62%
14:00 +28°C° 0 mm 4 m/S 736 mmHg 61%
15:00 +28°C° 0 mm 3 m/S 736 mmHg 62%
16:00 +28°C° 0 mm 3 m/S 735 mmHg 63%
17:00 +28°C° 0 mm 3 m/S 735 mmHg 64%
18:00 +27°C° 0.1 mm 3 m/S 735 mmHg 70%
19:00 +25°C° 0.1 mm 3 m/S 735 mmHg 76%
20:00 +24°C° 0.1 mm 3 m/S 735 mmHg 83%
21:00 +22°C° 0 mm 3 m/S 735 mmHg 86%
22:00 +21°C° 0 mm 3 m/S 735 mmHg 89%
23:00 +20°C° 0 mm 3 m/S 735 mmHg 91%

Morgen, 22 Juni, Dienstag

Zeit Temperatur Niederschläge Wind Luftdruck Luftfeuchtigkeit
00:00 +20°C° 0 mm 3 m/S 735 mmHg 92%
01:00 +19°C° 0 mm 3 m/S 735 mmHg 93%
02:00 +19°C° 0 mm 3 m/S 735 mmHg 94%
03:00 +19°C° 0 mm 3 m/S 735 mmHg 94%
04:00 +18°C° 0 mm 3 m/S 735 mmHg 94%
05:00 +18°C° 0 mm 3 m/S 735 mmHg 95%
06:00 +20°C° 0 mm 3 m/S 736 mmHg 89%
07:00 +21°C° 0 mm 3 m/S 736 mmHg 84%
08:00 +23°C° 0 mm 4 m/S 736 mmHg 79%
09:00 +25°C° 0 mm 4 m/S 736 mmHg 74%
10:00 +27°C° 0 mm 4 m/S 736 mmHg 70%
11:00 +28°C° 0 mm 4 m/S 736 mmHg 66%
12:00 +28°C° 0 mm 4 m/S 736 mmHg 64%
13:00 +29°C° 0 mm 4 m/S 737 mmHg 62%
14:00 +30°C° 0 mm 4 m/S 737 mmHg 60%
15:00 +30°C° 0.1 mm 4 m/S 736 mmHg 62%
16:00 +30°C° 0.1 mm 4 m/S 736 mmHg 64%
17:00 +29°C° 0.1 mm 4 m/S 736 mmHg 66%
18:00 +28°C° 0 mm 3 m/S 736 mmHg 72%
19:00 +27°C° 0 mm 3 m/S 736 mmHg 77%
20:00 +25°C° 0 mm 2 m/S 736 mmHg 83%
21:00 +24°C° 0 mm 2 m/S 736 mmHg 85%
22:00 +23°C° 0 mm 2 m/S 737 mmHg 87%
23:00 +21°C° 0 mm 2 m/S 737 mmHg 89%

übermorgen, 23 Juni, Mittwoch

Zeit Temperatur Niederschläge Wind Luftdruck Luftfeuchtigkeit
00:00 +21°C° 0 mm 2 m/S 737 mmHg 90%
01:00 +21°C° 0 mm 2 m/S 737 mmHg 91%
02:00 +20°C° 0 mm 2 m/S 737 mmHg 92%
03:00 +20°C° 0 mm 2 m/S 737 mmHg 92%
04:00 +21°C° 0 mm 1 m/S 737 mmHg 92%
05:00 +21°C° 0 mm 1 m/S 737 mmHg 93%
06:00 +21°C° 0 mm 2 m/S 738 mmHg 88%
07:00 +24°C° 0 mm 2 m/S 738 mmHg 84%
08:00 +25°C° 0 mm 2 m/S 738 mmHg 80%
09:00 +27°C° 0 mm 2 m/S 739 mmHg 75%
10:00 +28°C° 0 mm 2 m/S 739 mmHg 70%
11:00 +29°C° 0 mm 2 m/S 739 mmHg 65%
12:00 +30°C° 0 mm 2 m/S 739 mmHg 63%
13:00 +30°C° 0 mm 2 m/S 739 mmHg 61%
14:00 +31°C° 0 mm 2 m/S 739 mmHg 58%
15:00 +31°C° 0.2 mm 2 m/S 739 mmHg 60%
16:00 +31°C° 0.2 mm 2 m/S 739 mmHg 61%
17:00 +31°C° 0.2 mm 2 m/S 739 mmHg 62%
18:00 +29°C° 0.3 mm 2 m/S 739 mmHg 67%
19:00 +28°C° 0.3 mm 1 m/S 739 mmHg 72%
20:00 +26°C° 0.3 mm 1 m/S 739 mmHg 77%
21:00 +25°C° 0.6 mm 1 m/S 739 mmHg 80%
22:00 +24°C° 0.6 mm 1 m/S 739 mmHg 83%
23:00 +21°C° 0.6 mm 0 m/S 739 mmHg 86%

24 Juni, Donnerstag

Zeit Temperatur Niederschläge Wind Luftdruck Luftfeuchtigkeit
00:00 +23°C° 0.1 mm 1 m/S 739 mmHg 87%
01:00 +22°C° 0.1 mm 1 m/S 739 mmHg 87%
02:00 +22°C° 0.1 mm 1 m/S 739 mmHg 88%
03:00 +21°C° 0.2 mm 1 m/S 740 mmHg 89%
04:00 +21°C° 0.2 mm 1 m/S 740 mmHg 90%
05:00 +21°C° 0.2 mm 1 m/S 740 mmHg 92%
06:00 +22°C° 0 mm 1 m/S 740 mmHg 88%
07:00 +22°C° 0 mm 0 m/S 740 mmHg 84%
08:00 +23°C° 0 mm 0 m/S 740 mmHg 81%
09:00 +25°C° 0.2 mm 0 m/S 740 mmHg 76%
10:00 +28°C° 0.2 mm 1 m/S 740 mmHg 72%
11:00 +29°C° 0.2 mm 1 m/S 740 mmHg 67%
12:00 +30°C° 0.1 mm 1 m/S 740 mmHg 63%
13:00 +31°C° 0.1 mm 1 m/S 740 mmHg 59%
14:00 +32°C° 0.1 mm 1 m/S 740 mmHg 55%
15:00 +32°C° 0 mm 2 m/S 740 mmHg 56%
16:00 +32°C° 0 mm 2 m/S 740 mmHg 56%
17:00 +32°C° 0 mm 2 m/S 740 mmHg 57%
18:00 +30°C° 0.1 mm 2 m/S 739 mmHg 63%
19:00 +29°C° 0.1 mm 2 m/S 739 mmHg 69%
20:00 +27°C° 0.1 mm 2 m/S 739 mmHg 76%
21:00 +26°C° 0 mm 2 m/S 739 mmHg 78%
22:00 +25°C° 0 mm 2 m/S 739 mmHg 81%
23:00 +24°C° 0 mm 2 m/S 739 mmHg 84%

25 Juni, Freitag

Zeit Temperatur Niederschläge Wind Luftdruck Luftfeuchtigkeit
00:00 +23°C° 0 mm 2 m/S 739 mmHg 85%
01:00 +23°C° 0 mm 2 m/S 738 mmHg 86%
02:00 +23°C° 0 mm 2 m/S 738 mmHg 88%
03:00 +21°C° 0 mm 2 m/S 738 mmHg 89%
04:00 +21°C° 0 mm 2 m/S 738 mmHg 90%
05:00 +21°C° 0 mm 3 m/S 738 mmHg 91%
06:00 +22°C° 0 mm 3 m/S 737 mmHg 86%
07:00 +25°C° 0 mm 4 m/S 737 mmHg 81%
08:00 +27°C° 0 mm 4 m/S 737 mmHg 76%
09:00 +28°C° 0 mm 4 m/S 737 mmHg 71%
10:00 +30°C° 0 mm 4 m/S 737 mmHg 66%
11:00 +32°C° 0 mm 5 m/S 737 mmHg 61%
12:00 +33°C° 0 mm 5 m/S 737 mmHg 59%
13:00 +33°C° 0 mm 4 m/S 737 mmHg 58%
14:00 +34°C° 0 mm 4 m/S 737 mmHg 56%
15:00 +29°C° 5.7 mm 5 m/S 737 mmHg 68%
16:00 +26°C° 5.7 mm 6 m/S 737 mmHg 79%
17:00 +21°C° 5.7 mm 6 m/S 737 mmHg 91%
18:00 +21°C° 2.5 mm 5 m/S 737 mmHg 92%
19:00 +20°C° 2.5 mm 4 m/S 738 mmHg 93%
20:00 +19°C° 2.5 mm 3 m/S 738 mmHg 94%
21:00 +19°C° 0.3 mm 3 m/S 738 mmHg 94%
22:00 +19°C° 0.3 mm 3 m/S 738 mmHg 95%
23:00 +19°C° 0.3 mm 3 m/S 738 mmHg 95%

26 Juni, Samstag

Zeit Temperatur Niederschläge Wind Luftdruck Luftfeuchtigkeit
00:00 +18°C° 0 mm 3 m/S 738 mmHg 96%
01:00 +18°C° 0 mm 2 m/S 738 mmHg 96%
02:00 +17°C° 0 mm 2 m/S 738 mmHg 96%
03:00 +17°C° 0 mm 2 m/S 738 mmHg 96%
04:00 +17°C° 0 mm 2 m/S 738 mmHg 95%
05:00 +17°C° 0 mm 2 m/S 738 mmHg 95%
06:00 +18°C° 0 mm 2 m/S 739 mmHg 91%
07:00 +19°C° 0 mm 3 m/S 739 mmHg 86%
08:00 +20°C° 0 mm 3 m/S 739 mmHg 82%
09:00 +21°C° 0 mm 3 m/S 739 mmHg 77%
10:00 +22°C° 0 mm 3 m/S 739 mmHg 71%
11:00 +24°C° 0 mm 3 m/S 739 mmHg 66%
12:00 +24°C° 0 mm 3 m/S 739 mmHg 65%
13:00 +24°C° 0 mm 3 m/S 739 mmHg 64%
14:00 +25°C° 0 mm 3 m/S 739 mmHg 63%
15:00 +24°C° 0.1 mm 3 m/S 738 mmHg 66%
16:00 +24°C° 0.1 mm 3 m/S 738 mmHg 69%
17:00 +22°C° 0.1 mm 3 m/S 738 mmHg 72%
18:00 +21°C° 0.1 mm 3 m/S 738 mmHg 76%
19:00 +20°C° 0.1 mm 3 m/S 738 mmHg 81%
20:00 +19°C° 0.1 mm 3 m/S 738 mmHg 85%
21:00 +18°C° 0 mm 3 m/S 738 mmHg 86%
22:00 +17°C° 0 mm 2 m/S 738 mmHg 87%
23:00 +16°C° 0 mm 2 m/S 738 mmHg 88%
Mehr zeigen

Wir brauchen deine Erlaubnis

Meteoprog und unser Service Anbieter werden persönliche Daten aufbewahren, so wie Cookies, Geräte Bezeichnung oder ähnliche Technologien von deinem Gerät und Prozess, so wie Persönliche Daten Inhalte und Werbungen, genauso wie social Media und den Verkehr zu analysieren.

  • Aufbewahrung und/oder Zugang zu deiner Geräte Informationen.

    Cookies, Geräte Bezeichnung oder andere Informationen, können aufbewahrt oder Zugang zu deinem Gerät erhalten, für den Grund, der oben angegeben wird.

  • Personalisierte Werbung und Inhalte, Messungen, Einblick in das Publikum und Produkt Entwicklung.

    Werbungen und Inhalte können personalisiert werden, basierend auf ein Profil. Mehr Daten können besser personalisierte Werbungen und Inhalte hinzufügen. Werbung und Inhalte können gezeigt und gemessen werden. Einblicke über das Publikum, welche die Werbung gesehen haben und den Inhalt, können abgeleitet werden. So wie Daten können genutzt werden, um es zu verbessern oder die Benutzer Erfahrung zu verbessern das System und die Software.

Wenn du “Ich stimme zu” klickst, erlaubst du uns, die Cookies zu benutzen die Geräte Bezeichnung, den Web oder ähnliche Technologien zu benutzen. Deine Settings, können in deinem Gerät bei deinem Browser geändert werden.

Für den bestimmten Zweck, berechtigten Interessen beruhen darauf, mehr als auf den Inhalt. Du kannst mehr darüber in unseren Privaten und Cookie Politik lesen.